period_start,C,m1,H,J0,J1,J2,J3,J4,J5,JA,JB,JC,JD,JJ,JK,JN,#
2017-08-01 00:03:21,0.09,2.31,0.00,28.72,33.16,35.62,13.42,48.49,995.62,2004.81,2590.16,2508.19,2793.64,600.28,573.00,31.19,0000 0000 0000 0000 000000
2017-08-01 00:08:22,0.11,2.31,0.00,28.70,33.14,35.60,13.38,48.58,995.62,2004.90,2588.57,2507.31,2792.55,599.86,572.58,31.24,0000 0000 0000 0000 000000
2017-08-01 00:13:23,0.07,2.32,0.00,28.67,33.12,35.59,13.40,48.57,995.63,2004.97,2587.03,2506.64,2791.59,599.73,572.46,31.29,0000 0000 0000 0000 000000
2017-08-01 00:18:24,0.07,2.32,0.00,28.65,33.10,35.56,13.44,48.70,995.64,2004.98,2585.56,2505.97,2790.59,599.89,572.75,31.34,0000 0000 0000 0000 000000
2017-08-01 00:23:25,0.08,2.33,0.00,28.64,33.07,35.53,13.45,48.63,995.74,2004.99,2584.15,2505.14,2789.69,599.77,572.91,31.39,0000 0000 0000 0000 000000
2017-08-01 00:28:26,0.09,2.33,0.00,28.61,33.05,35.52,13.46,48.69,995.91,2004.99,2582.61,2504.50,2788.75,599.73,572.75,31.44,0000 0000 0000 0000 000000
2017-08-01 00:33:27,0.07,2.33,0.00,28.60,33.03,35.49,13.49,48.70,995.99,2005.00,2581.07,2503.78,2787.77,600.51,573.63,31.49,0000 0000 0000 0000 000000
2017-08-01 00:38:29,0.09,2.34,0.00,28.58,33.01,35.48,13.49,48.80,995.79,2005.02,2579.48,2502.93,2786.65,600.12,573.06,31.54,0000 0000 0000 0000 000000
2017-08-01 00:43:30,0.10,2.34,0.00,28.56,33.00,35.45,13.49,48.73,995.64,2005.10,2577.90,2502.10,2785.74,599.96,572.99,31.59,0000 0000 0000 0000 000000
2017-08-01 00:48:31,0.12,2.35,0.00,28.54,32.97,35.44,13.49,48.85,995.68,2005.45,2576.39,2501.39,2784.80,599.91,572.96,31.64,0000 0000 0000 0000 000000
2017-08-01 00:53:33,0.09,2.35,0.00,28.52,32.96,35.42,13.48,48.69,995.72,2005.76,2574.95,2500.77,2783.87,600.12,573.22,31.69,0000 0000 0000 0000 000000
2017-08-01 00:58:33,0.10,2.36,0.00,28.51,32.93,35.40,13.43,48.79,995.69,2005.91,2573.41,2499.93,2782.72,599.75,573.07,31.74,0000 0000 0000 0000 000000
2017-08-01 01:03:35,0.15,2.37,0.00,28.49,32.91,35.37,13.40,48.70,995.68,2005.98,2571.13,2498.70,2781.36,599.79,572.95,31.79,0000 0000 0000 0000 000000
2017-08-01 01:08:36,0.10,2.37,0.00,28.46,32.90,35.34,13.44,48.91,995.65,2005.99,2568.98,2497.54,2779.90,600.32,573.44,31.84,0000 0000 0000 0000 000000
2017-08-01 01:13:37,0.08,2.38,0.00,28.45,32.87,35.33,13.49,48.81,995.63,2005.99,2567.47,2496.72,2778.84,600.12,573.31,31.89,0000 0000 0000 0000 000000
2017-08-01 01:18:39,0.06,2.38,0.00,28.43,32.85,35.31,13.47,48.93,995.62,2006.03,2566.07,2495.96,2777.90,600.05,573.23,31.94,0000 0000 0000 0000 000000
2017-08-01 01:23:40,0.10,2.39,0.00,28.41,32.83,35.27,13.42,48.91,995.62,2006.04,2564.47,2495.09,2776.79,599.79,573.08,31.99,0000 0000 0000 0000 000000
2017-08-01 01:28:41,0.32,2.40,0.00,28.39,32.81,35.26,13.43,48.77,995.63,2006.16,2561.16,2492.66,2773.99,599.85,573.18,32.04,0000 0000 0000 0000 000000
2017-08-01 01:33:42,0.52,2.42,0.00,28.37,32.79,35.24,13.43,49.14,995.63,2006.21,2553.80,2486.47,2767.26,599.73,573.07,32.09,0000 0000 0000 0000 000000
2017-08-01 01:38:44,0.22,2.44,0.00,28.35,32.76,35.22,13.46,49.27,995.63,2006.50,2549.97,2483.42,2763.87,600.10,573.47,32.14,0000 0000 0000 0000 000000
2017-08-01 01:43:46,0.14,2.45,0.00,28.32,32.75,35.19,13.41,49.17,995.62,2006.74,2548.09,2482.18,2762.44,599.90,573.20,32.19,0000 0000 0000 0000 000000
2017-08-01 01:48:47,0.10,2.45,0.00,28.30,32.72,35.18,13.43,49.02,995.63,2006.96,2546.63,2481.41,2761.47,600.24,573.70,32.25,0000 0000 0000 0000 000000
2017-08-01 01:53:49,0.08,2.46,0.00,28.29,32.70,35.15,13.40,48.97,995.63,2006.99,2545.14,2480.55,2760.42,599.77,573.27,32.30,0000 0000 0000 0000 000000
2017-08-01 01:58:50,0.06,2.46,0.00,28.27,32.67,35.15,13.44,49.13,995.65,2006.99,2543.81,2479.91,2759.55,599.85,573.31,32.35,0000 0000 0000 0000 000000
2017-08-01 02:03:51,0.09,2.47,0.00,28.25,32.65,35.13,13.46,49.04,995.69,2007.01,2542.37,2479.10,2758.57,600.26,573.85,32.40,0000 0000 0000 0000 000000
2017-08-01 02:08:53,0.10,2.47,0.00,28.22,32.63,35.10,13.53,49.03,995.86,2007.01,2540.68,2478.20,2757.51,600.41,574.13,32.45,0000 0000 0000 0000 000000
2017-08-01 02:13:54,0.10,2.48,0.00,28.21,32.61,35.08,13.45,49.02,995.95,2007.04,2538.88,2477.21,2756.33,599.70,573.57,32.50,0000 0000 0000 0000 000000
2017-08-01 02:18:55,0.10,2.48,0.00,28.18,32.59,35.06,13.50,49.20,996.05,2007.13,2537.40,2476.37,2755.25,600.05,574.09,32.55,0000 0000 0000 0000 000000
2017-08-01 02:23:56,0.07,2.48,0.00,28.16,32.56,35.03,13.45,49.04,995.89,2007.38,2536.39,2475.98,2754.59,599.94,573.81,32.60,0000 0000 0000 0000 000000
2017-08-01 02:28:58,0.10,2.49,0.00,28.14,32.54,35.02,13.49,49.15,995.85,2007.78,2535.34,2475.29,2753.99,600.04,573.85,32.65,0000 0000 0000 0000 000000
2017-08-01 02:33:59,0.05,2.49,0.00,28.12,32.52,35.00,13.43,49.04,995.81,2007.96,2534.44,2475.00,2753.28,599.72,573.60,32.70,0000 0000 0000 0000 000000
2017-08-01 02:39:00,0.06,2.50,0.00,28.10,32.50,34.98,13.43,49.29,995.67,2007.98,2533.57,2474.49,2752.84,599.92,573.80,32.75,0000 0000 0000 0000 000000
2017-08-01 02:44:02,0.03,2.50,0.00,28.07,32.47,34.96,13.43,49.22,995.64,2007.99,2532.84,2474.01,2752.07,599.98,573.92,32.80,0000 0000 0000 0000 000000
2017-08-01 02:49:03,0.02,2.50,0.00,28.06,32.46,34.94,13.46,49.19,995.68,2007.99,2532.06,2473.93,2751.98,600.01,573.89,32.85,0000 0000 0000 0000 000000
2017-08-01 02:54:04,0.07,2.50,0.00,28.04,32.43,34.93,13.51,49.32,995.71,2007.99,2531.27,2473.26,2751.31,599.92,573.85,32.90,0000 0000 0000 0000 000000
2017-08-01 02:59:05,0.02,2.50,0.00,28.01,32.41,34.88,13.41,49.33,995.75,2008.02,2530.72,2473.00,2751.00,599.87,573.95,32.95,0000 0000 0000 0000 000000
2017-08-01 03:04:07,0.02,2.51,0.00,28.00,32.39,34.87,13.48,49.25,995.85,2008.08,2530.06,2472.94,2750.87,600.16,574.34,33.00,0000 0000 0000 0000 000000
2017-08-01 03:09:08,0.10,2.51,0.00,27.97,32.37,34.86,13.50,49.15,995.95,2008.49,2529.53,2472.43,2750.17,599.90,574.18,33.05,0000 0000 0000 0000 000000
2017-08-01 03:14:09,0.05,2.51,0.00,27.95,32.35,34.84,13.35,49.23,996.02,2008.69,2528.85,2472.02,2749.97,599.44,573.84,33.10,0000 0000 0000 0000 000000
2017-08-01 03:19:11,0.04,2.52,0.00,27.92,32.32,34.83,13.46,49.45,996.11,2008.90,2528.08,2471.98,2749.43,599.96,574.36,33.16,0000 0000 0000 0000 000000
2017-08-01 03:24:12,0.05,2.52,0.00,27.90,32.31,34.80,13.48,49.55,996.11,2008.97,2527.79,2471.38,2749.00,600.06,574.55,33.21,0000 0000 0000 0000 000000
2017-08-01 03:29:13,0.03,2.52,0.00,27.88,32.29,34.80,13.47,49.54,996.11,2008.99,2527.02,2471.02,2748.65,600.14,574.68,33.26,0000 0000 0000 0000 000000
2017-08-01 03:34:14,0.08,2.52,0.00,27.86,32.26,34.76,13.50,49.42,996.10,2008.99,2525.77,2470.56,2747.75,599.79,574.32,33.31,0000 0000 0000 0000 000000
2017-08-01 03:39:16,0.10,2.53,0.00,27.83,32.24,34.74,13.56,49.48,996.11,2008.99,2524.09,2469.11,2746.40,600.19,574.87,33.36,0000 0000 0000 0000 000000
2017-08-01 03:44:17,0.02,2.53,0.00,27.81,32.22,34.72,13.47,49.33,996.11,2008.99,2523.36,2469.00,2746.00,600.18,574.84,33.41,0000 0000 0000 0000 000000
2017-08-01 03:49:18,0.02,2.53,0.00,27.79,32.20,34.69,13.45,49.59,996.11,2008.99,2522.99,2468.81,2745.78,599.84,574.69,33.46,0000 0000 0000 0000 000000
2017-08-01 03:54:19,0.05,2.54,0.00,27.77,32.17,34.68,13.53,49.58,996.11,2009.02,2522.41,2468.30,2745.17,600.20,574.86,33.51,0000 0000 0000 0000 000000
2017-08-01 03:59:20,0.05,2.54,0.00,27.75,32.15,34.65,13.50,49.43,996.12,2009.28,2522.00,2468.04,2745.01,599.96,574.73,33.56,0000 0000 0000 0000 000000
2017-08-01 04:04:22,0.03,2.54,0.00,27.72,32.13,34.63,13.42,49.25,996.12,2009.55,2521.45,2467.99,2744.88,599.65,574.51,33.61,0000 0000 0000 0000 000000
2017-08-01 04:09:23,0.05,2.54,0.00,27.70,32.11,34.61,13.60,49.50,996.13,2009.78,2521.01,2467.86,2744.18,600.54,575.43,33.66,0000 0000 0000 0000 000000
2017-08-01 04:14:24,0.03,2.54,0.00,27.68,32.09,34.60,13.53,49.43,996.29,2009.94,2520.97,2467.49,2744.01,599.98,575.07,33.71,0000 0000 0000 0000 000000
2017-08-01 04:19:26,0.02,2.55,0.00,27.66,32.07,34.56,13.62,49.48,996.58,2009.97,2520.48,2467.11,2744.00,600.38,575.47,33.76,0000 0000 0000 0000 000000
2017-08-01 04:24:27,0.01,2.55,0.00,27.64,32.05,34.55,13.54,49.49,996.59,2009.99,2520.12,2467.02,2743.99,600.20,575.42,33.81,0000 0000 0000 0000 000000
2017-08-01 04:29:28,0.00,2.55,0.00,27.62,32.02,34.54,13.53,49.32,996.60,2009.99,2520.02,2467.01,2743.98,600.10,575.40,33.86,0000 0000 0000 0000 000000
2017-08-01 04:34:30,0.04,2.55,0.00,27.61,32.00,34.50,13.52,49.38,996.60,2009.99,2519.59,2466.96,2743.28,599.82,575.18,33.91,0000 0000 0000 0000 000000
2017-08-01 04:39:31,0.03,2.55,0.00,27.59,31.98,34.47,13.51,49.35,996.60,2010.02,2519.02,2466.46,2743.01,600.24,575.66,33.96,0000 0000 0000 0000 000000
2017-08-01 04:44:33,0.02,2.55,0.00,27.57,31.96,34.45,13.52,49.25,996.63,2010.10,2518.91,2466.03,2742.97,600.00,575.47,34.01,0000 0000 0000 0000 000000
2017-08-01 04:49:34,0.03,2.55,0.00,27.55,31.94,34.42,13.54,49.21,996.78,2010.19,2518.30,2466.00,2742.60,600.07,575.68,34.06,0000 0000 0000 0000 000000
2017-08-01 04:54:35,0.03,2.56,0.00,27.54,31.91,34.38,13.53,49.18,996.83,2010.47,2518.12,2466.00,2742.44,600.24,575.94,34.11,0000 0000 0000 0000 000000
2017-08-01 04:59:37,0.04,2.56,0.00,27.52,31.90,34.36,13.52,49.24,996.75,2010.74,2518.01,2466.00,2742.10,599.93,575.56,34.17,0000 0000 0000 0000 000000
2017-08-01 05:04:38,0.02,2.56,0.00,27.50,31.87,34.33,13.49,49.39,996.72,2010.92,2517.99,2465.96,2742.01,599.82,575.41,34.22,0000 0000 0000 0000 000000
2017-08-01 05:09:39,0.01,2.56,0.00,27.49,31.86,34.32,13.51,49.49,996.81,2010.98,2517.95,2465.93,2742.00,600.39,576.06,34.27,0000 0000 0000 0000 000000
2017-08-01 05:14:41,0.00,2.56,0.00,27.47,31.84,34.30,13.50,49.28,997.02,2010.99,2517.97,2465.97,2742.00,600.02,575.86,34.32,0000 0000 0000 0000 000000
2017-08-01 05:19:42,0.00,2.56,0.00,27.46,31.82,34.29,13.57,49.33,997.07,2010.99,2517.95,2465.97,2742.01,600.33,576.39,34.37,0000 0000 0000 0000 000000
2017-08-01 05:24:43,0.01,2.56,0.00,27.45,31.80,34.27,13.49,49.52,997.07,2011.00,2517.65,2465.98,2742.00,599.22,575.09,34.42,0000 0000 0000 0000 000000
2017-08-01 05:29:45,0.03,2.56,0.00,27.43,31.78,34.26,13.51,49.30,997.04,2011.01,2517.06,2465.60,2741.99,599.74,575.74,34.47,0000 0000 0000 0000 000000
2017-08-01 05:34:46,0.04,2.56,0.00,27.42,31.76,34.23,13.52,49.36,997.07,2011.03,2516.82,2465.06,2741.59,600.00,575.99,34.52,0000 0000 0000 0000 000000
2017-08-01 05:39:48,0.03,2.56,0.00,27.40,31.75,34.21,13.55,49.55,997.08,2011.13,2516.07,2465.00,2741.02,599.92,575.86,34.57,0000 0000 0000 0000 000000
2017-08-01 05:44:49,0.08,2.57,0.00,27.39,31.72,34.20,13.51,49.24,997.07,2011.57,2515.87,2464.65,2740.90,600.11,576.19,34.62,0000 0000 0000 0000 000000
2017-08-01 05:49:50,0.07,2.57,0.00,27.37,31.71,34.17,13.46,49.30,997.07,2011.84,2515.11,2464.08,2740.25,599.88,575.94,34.67,0000 0000 0000 0000 000000
2017-08-01 05:54:51,0.02,2.57,0.00,27.36,31.69,34.15,13.44,49.35,997.08,2011.93,2514.68,2463.98,2739.99,599.72,575.79,34.72,0000 0000 0000 0000 000000
2017-08-01 05:59:52,0.04,2.58,0.00,27.35,31.67,34.14,13.52,49.29,997.08,2011.98,2514.03,2463.67,2739.62,600.01,575.98,34.77,0000 0000 0000 0000 000000
2017-08-01 06:04:54,0.02,2.58,0.00,27.33,31.65,34.12,13.56,49.27,997.08,2011.99,2513.89,2463.09,2739.05,600.16,576.33,34.82,0000 0000 0000 0000 000000
2017-08-01 06:09:54,0.02,2.58,0.00,27.32,31.64,34.11,13.45,49.14,997.08,2011.99,2513.13,2463.00,2738.99,599.52,575.75,34.87,0000 0000 0000 0000 000000
2017-08-01 06:14:56,0.02,2.58,0.00,27.31,31.62,34.09,13.51,49.21,997.09,2011.99,2512.91,2462.88,2738.62,600.22,576.33,34.92,0000 0000 0000 0000 000000
2017-08-01 06:19:57,0.05,2.58,0.00,27.30,31.61,34.08,13.54,49.63,997.09,2011.99,2512.30,2462.28,2738.05,600.25,576.46,34.97,0000 0000 0000 0000 000000
2017-08-01 06:24:59,0.00,2.58,0.00,27.30,31.60,34.05,13.49,49.42,997.09,2012.01,2512.03,2462.02,2738.00,599.84,576.05,35.02,0000 0000 0000 0000 000000
2017-08-01 06:30:00,0.02,2.58,0.00,27.28,31.57,34.03,13.50,49.42,997.10,2012.02,2511.87,2462.00,2737.77,599.90,576.28,35.07,0000 0000 0000 0000 000000
2017-08-01 06:35:01,0.03,2.59,0.00,27.27,31.56,34.02,13.52,49.34,997.10,2012.04,2511.22,2461.94,2737.17,599.98,576.22,35.13,0000 0000 0000 0000 000000
2017-08-01 06:40:03,0.04,2.59,0.00,27.26,31.55,34.01,13.50,49.25,997.11,2012.09,2511.01,2461.44,2737.00,599.39,575.76,35.18,0000 0000 0000 0000 000000
2017-08-01 06:45:04,0.04,2.59,0.00,27.23,31.53,33.99,13.58,49.32,997.11,2012.22,2510.58,2461.02,2736.88,600.30,576.58,35.23,0000 0000 0000 0000 000000
2017-08-01 06:50:05,0.02,2.59,0.00,27.22,31.52,33.98,13.52,49.53,997.29,2012.33,2510.00,2460.98,2736.13,600.37,576.93,35.28,0000 0000 0000 0000 000000
2017-08-01 06:55:06,0.06,2.59,0.00,27.21,31.50,33.97,13.54,49.76,997.50,2012.51,2509.32,2460.49,2736.00,600.09,576.67,35.33,0000 0000 0000 0000 000000
2017-08-01 07:00:07,0.06,2.60,0.00,27.19,31.50,33.94,13.57,49.68,997.50,2012.86,2508.95,2460.02,2735.69,599.81,576.49,35.38,0000 0000 0000 0000 000000
2017-08-01 07:05:08,0.03,2.60,0.00,27.18,31.47,33.94,13.46,49.63,997.51,2012.94,2508.22,2460.00,2735.05,599.61,576.28,35.43,0000 0000 0000 0000 000000
2017-08-01 07:10:10,0.01,2.60,0.00,27.17,31.46,33.92,13.54,49.67,997.53,2012.98,2507.99,2459.90,2734.98,599.64,576.36,35.48,0000 0000 0000 0000 000000
2017-08-01 07:15:11,0.06,2.60,0.00,27.15,31.45,33.91,13.51,49.66,997.57,2012.98,2507.45,2459.21,2734.48,600.12,576.83,35.53,0000 0000 0000 0000 000000
2017-08-01 07:20:12,0.01,2.60,0.00,27.15,31.44,33.89,13.54,49.72,997.57,2012.99,2506.99,2459.00,2734.02,599.82,576.62,35.58,0000 0000 0000 0000 000000
2017-08-01 07:25:13,0.02,2.61,0.00,27.14,31.42,33.87,13.52,49.35,997.58,2012.99,2506.52,2458.97,2733.97,599.90,576.74,35.63,0000 0000 0000 0000 000000
2017-08-01 07:30:14,0.03,2.61,0.00,27.12,31.40,33.86,13.52,49.45,997.58,2012.99,2506.02,2458.68,2733.56,600.01,576.84,35.68,0000 0000 0000 0000 000000
2017-08-01 07:35:16,0.03,2.61,0.00,27.11,31.40,33.85,13.59,49.60,997.60,2012.99,2505.89,2458.12,2733.03,600.34,577.24,35.73,0000 0000 0000 0000 000000
2017-08-01 07:40:17,0.02,2.61,0.00,27.10,31.37,33.83,13.58,49.91,997.63,2012.99,2505.14,2458.00,2733.00,600.03,576.95,35.78,0000 0000 0000 0000 000000
2017-08-01 07:45:18,0.01,2.61,0.00,27.08,31.37,33.82,13.55,49.78,997.82,2013.02,2505.01,2458.00,2732.95,600.13,577.17,35.83,0000 0000 0000 0000 000000
2017-08-01 07:50:19,0.03,2.61,0.00,27.07,31.36,33.81,13.48,49.42,998.02,2013.06,2504.61,2457.95,2732.32,599.81,576.96,35.88,0000 0000 0000 0000 000000
2017-08-01 07:55:20,0.03,2.61,0.00,27.06,31.35,33.80,13.52,49.66,998.06,2013.14,2504.02,2457.49,2732.01,599.47,576.69,35.93,0000 0000 0000 0000 000000
2017-08-01 08:00:21,0.04,2.62,0.00,27.05,31.32,33.78,13.56,49.47,998.06,2013.32,2503.99,2457.11,2732.00,600.21,577.47,35.98,0000 0000 0000 0000 000000
2017-08-01 08:05:23,0.04,2.62,0.00,27.04,31.32,33.77,13.53,49.42,998.06,2013.63,2503.90,2457.02,2731.99,599.99,577.27,36.03,0000 0000 0000 0000 000000
2017-08-01 08:10:24,0.03,2.62,0.00,27.02,31.30,33.75,13.53,49.53,998.06,2013.84,2503.39,2457.00,2731.90,600.18,577.57,36.09,0000 0000 0000 0000 000000
2017-08-01 08:15:25,0.01,2.62,0.00,27.00,31.29,33.74,13.60,49.69,998.06,2013.86,2503.01,2457.00,2731.28,600.65,578.06,36.14,0000 0000 0000 0000 000000
2017-08-01 08:20:27,0.01,2.62,0.00,27.00,31.27,33.73,13.55,49.89,998.07,2013.94,2502.99,2456.99,2731.05,600.38,577.74,36.19,0000 0000 0000 0000 000000
2017-08-01 08:25:28,0.00,2.62,0.00,26.98,31.26,33.72,13.52,49.80,998.08,2013.98,2502.95,2456.94,2731.00,599.86,577.22,36.24,0000 0000 0000 0000 000000
2017-08-01 08:30:29,0.03,2.62,0.00,26.97,31.25,33.70,13.52,49.72,998.09,2013.98,2502.52,2456.65,2731.00,600.08,577.50,36.29,0000 0000 0000 0000 000000
2017-08-01 08:35:31,0.02,2.62,0.00,26.96,31.23,33.69,13.59,49.85,998.22,2013.98,2502.02,2456.11,2730.95,599.88,577.37,36.34,0000 0000 0000 0000 000000
2017-08-01 08:40:32,0.01,2.63,0.00,26.95,31.22,33.67,13.54,49.62,998.43,2013.99,2501.99,2456.01,2730.66,599.77,577.51,36.39,0000 0000 0000 0000 000000
2017-08-01 08:45:34,0.00,2.63,0.00,26.92,31.20,33.66,13.58,49.63,998.51,2013.99,2501.88,2456.00,2730.16,600.21,577.94,36.44,0000 0000 0000 0000 000000
2017-08-01 08:50:35,0.02,2.63,0.00,26.91,31.19,33.65,13.58,49.84,998.51,2013.99,2501.12,2456.00,2730.00,599.52,577.32,36.49,0000 0000 0000 0000 000000
2017-08-01 08:55:36,0.00,2.63,0.00,26.90,31.17,33.63,13.50,49.67,998.53,2013.99,2500.98,2455.93,2729.99,599.83,577.67,36.54,0000 0000 0000 0000 000000
2017-08-01 09:00:38,0.02,2.63,0.00,26.90,31.16,33.62,13.55,49.68,998.55,2014.00,2500.58,2455.74,2729.94,600.17,578.11,36.59,0000 0000 0000 0000 000000
2017-08-01 09:05:39,0.02,2.63,0.00,26.87,31.15,33.61,13.53,49.57,998.55,2014.01,2500.04,2455.43,2729.75,599.64,577.61,36.64,0000 0000 0000 0000 000000
2017-08-01 09:10:40,0.02,2.63,0.00,26.87,31.13,33.59,13.58,49.69,998.56,2014.12,2500.00,2455.23,2729.46,599.74,577.67,36.69,0000 0000 0000 0000 000000
2017-08-01 09:15:42,0.01,2.63,0.00,26.84,31.11,33.58,13.51,49.63,998.58,2014.15,2500.00,2455.05,2729.07,599.98,577.95,36.74,0000 0000 0000 0000 000000
2017-08-01 09:20:43,0.02,2.63,0.00,26.82,31.10,33.56,13.57,49.60,998.69,2014.35,2499.97,2455.01,2729.01,600.01,578.15,36.79,0000 0000 0000 0000 000000
2017-08-01 09:25:44,0.02,2.63,0.00,26.80,31.08,33.55,13.60,49.52,998.95,2014.56,2499.90,2455.00,2729.01,600.19,578.30,36.84,0000 0000 0000 0000 000000
2017-08-01 09:30:45,0.03,2.64,0.00,26.80,31.07,33.53,13.58,49.47,999.01,2014.84,2499.82,2455.00,2729.00,600.09,578.14,36.89,0000 0000 0000 0000 000000
2017-08-01 09:35:46,0.01,2.64,0.00,26.78,31.05,33.51,13.56,49.72,999.04,2014.94,2499.81,2455.01,2729.00,599.91,578.23,36.94,0000 0000 0000 0000 000000
2017-08-01 09:40:48,0.01,2.64,0.00,26.76,31.04,33.51,13.63,49.91,999.04,2014.97,2499.56,2455.00,2729.00,600.31,578.79,36.99,0000 0000 0000 0000 000000
2017-08-01 09:45:49,0.01,2.64,0.00,26.74,31.02,33.50,13.59,49.35,999.04,2014.98,2499.44,2455.00,2729.00,600.47,578.79,37.04,0000 0000 0000 0000 000000
2017-08-01 09:50:50,-0.01,2.64,0.00,26.72,31.00,33.46,13.62,49.33,999.04,2014.99,2499.73,2455.00,2729.00,599.95,578.31,37.10,0000 0000 0000 0000 000000
2017-08-01 09:55:51,-0.00,2.64,0.00,26.72,30.99,33.46,13.63,49.42,999.04,2014.99,2499.89,2455.01,2729.00,600.12,578.51,37.15,0000 0000 0000 0000 000000
2017-08-01 10:00:52,0.00,2.64,0.00,26.70,30.97,33.45,13.56,49.48,999.05,2014.99,2499.87,2455.00,2729.00,600.01,578.51,37.20,0000 0000 0000 0000 000000
2017-08-01 10:05:53,-0.00,2.64,0.00,26.68,30.96,33.44,13.54,49.52,999.05,2015.00,2499.91,2455.01,2729.00,599.74,578.29,37.25,0000 0000 0000 0000 000000
2017-08-01 10:10:54,0.00,2.64,0.00,26.65,30.95,33.41,13.55,49.70,999.10,2015.01,2499.93,2455.02,2729.00,599.96,578.59,37.30,0000 0000 0000 0000 000000
2017-08-01 10:15:56,0.01,2.64,0.00,26.64,30.92,33.40,13.65,49.71,999.19,2015.04,2499.79,2455.01,2729.00,599.87,578.60,37.35,0000 0000 0000 0000 000000
2017-08-01 10:20:57,0.01,2.64,0.00,26.62,30.91,33.38,13.58,49.60,999.31,2015.10,2499.53,2455.02,2729.00,600.03,578.92,37.40,0000 0000 0000 0000 000000
2017-08-01 10:25:58,0.05,2.64,0.00,26.61,30.90,33.38,13.57,49.70,999.49,2015.45,2499.23,2455.00,2729.01,599.55,578.50,37.45,0000 0000 0000 0000 000000
2017-08-01 10:31:00,0.03,2.64,0.00,26.59,30.87,33.35,13.60,49.72,999.53,2015.78,2499.11,2455.01,2729.00,600.09,579.14,37.50,0000 0000 0000 0000 000000
2017-08-01 10:36:01,-0.00,2.64,0.00,26.57,30.86,33.34,13.61,49.62,999.53,2015.81,2499.03,2455.01,2729.00,600.18,579.19,37.55,0000 0000 0000 0000 000000
2017-08-01 10:41:02,0.01,2.64,0.00,26.55,30.85,33.32,13.60,49.61,999.53,2015.90,2499.03,2455.00,2729.00,599.86,578.84,37.60,0000 0000 0000 0000 000000
2017-08-01 10:46:04,0.00,2.64,0.00,26.53,30.82,33.30,13.62,49.56,999.53,2015.98,2499.04,2455.01,2729.00,600.24,579.37,37.65,0000 0000 0000 0000 000000
2017-08-01 10:51:05,0.00,2.64,0.00,26.52,30.81,33.28,13.57,49.80,999.53,2015.99,2499.01,2455.01,2729.00,599.78,578.85,37.70,0000 0000 0000 0000 000000
2017-08-01 10:56:06,0.00,2.64,0.00,26.50,30.79,33.26,13.59,49.76,999.54,2015.99,2499.00,2455.00,2729.00,599.58,578.84,37.75,0000 0000 0000 0000 000000
2017-08-01 11:01:08,0.00,2.64,0.00,26.49,30.77,33.25,13.63,49.54,999.55,2015.99,2499.00,2455.00,2729.00,600.15,579.34,37.80,0000 0000 0000 0000 000000
2017-08-01 11:06:09,0.00,2.64,0.00,26.47,30.75,33.23,13.61,49.43,999.59,2015.99,2498.99,2455.00,2729.00,599.81,579.10,37.85,0000 0000 0000 0000 000000
2017-08-01 11:11:10,0.00,2.64,0.00,26.47,30.74,33.21,13.59,49.39,999.60,2015.99,2498.97,2455.00,2729.00,599.83,579.21,37.90,0000 0000 0000 0000 000000
2017-08-01 11:16:12,0.01,2.64,0.00,26.45,30.72,33.20,13.54,49.47,999.77,2015.99,2498.75,2455.00,2728.97,599.70,579.12,37.95,0000 0000 0000 0000 000000
2017-08-01 11:21:13,0.01,2.64,0.00,26.44,30.70,33.18,13.69,49.62,999.67,2016.00,2498.34,2455.00,2728.98,600.42,579.77,38.00,0000 0000 0000 0000 000000
2017-08-01 11:26:14,0.00,2.64,0.00,26.42,30.69,33.15,13.55,49.60,999.61,2016.01,2498.15,2454.99,2728.97,599.96,579.42,38.06,0000 0000 0000 0000 000000
2017-08-01 11:31:16,0.01,2.65,0.00,26.40,30.67,33.14,13.63,49.84,999.63,2016.05,2498.03,2454.99,2728.94,600.29,579.85,38.11,0000 0000 0000 0000 000000
2017-08-01 11:36:17,-0.00,2.65,0.00,26.38,30.65,33.14,13.65,49.91,999.81,2016.07,2498.00,2454.98,2728.84,599.84,579.38,38.16,0000 0000 0000 0000 000000
2017-08-01 11:41:18,0.03,2.65,0.00,26.35,30.63,33.11,13.57,49.78,999.79,2016.33,2498.00,2454.99,2728.87,599.71,579.31,38.21,0000 0000 0000 0000 000000
2017-08-01 11:46:19,0.03,2.65,0.00,26.33,30.62,33.11,13.60,49.47,999.72,2016.75,2498.00,2454.99,2728.93,600.25,579.80,38.26,0000 0000 0000 0000 000000
2017-08-01 11:51:21,0.02,2.65,0.00,26.32,30.60,33.09,13.60,49.68,999.83,2016.88,2498.00,2454.99,2728.93,599.71,579.40,38.31,0000 0000 0000 0000 000000
2017-08-01 11:56:22,0.00,2.65,0.00,26.30,30.58,33.07,13.62,49.56,999.88,2016.96,2498.00,2454.99,2728.95,600.03,579.83,38.36,0000 0000 0000 0000 000000
2017-08-01 12:01:23,0.00,2.65,0.00,26.28,30.56,33.05,13.64,49.59,999.74,2016.97,2497.99,2454.99,2728.96,599.94,579.56,38.41,0000 0000 0000 0000 000000
2017-08-01 12:06:24,-0.00,2.65,0.00,26.26,30.55,33.04,13.60,49.48,999.69,2016.99,2497.99,2454.99,2728.97,599.77,579.48,38.46,0000 0000 0000 0000 000000
2017-08-01 12:11:25,0.00,2.65,0.00,26.25,30.52,33.01,13.54,49.65,999.69,2016.99,2497.99,2454.99,2728.98,600.05,579.71,38.51,0000 0000 0000 0000 000000
2017-08-01 12:16:26,0.00,2.65,0.00,26.22,30.51,32.99,13.56,49.79,999.94,2016.99,2498.00,2455.00,2728.99,599.76,579.71,38.56,0000 0000 0000 0000 000000
2017-08-01 12:21:28,0.00,2.65,0.00,26.20,30.50,32.98,13.61,50.04,1000.00,2016.99,2498.00,2455.00,2728.99,599.78,579.81,38.61,0000 0000 0000 0000 000000
2017-08-01 12:26:29,0.00,2.65,0.00,26.19,30.47,32.96,13.59,49.79,1000.01,2016.99,2498.00,2455.01,2728.99,599.91,579.97,38.66,0000 0000 0000 0000 000000
2017-08-01 12:31:30,0.00,2.65,0.00,26.16,30.45,32.94,13.54,49.68,1000.01,2017.00,2498.00,2455.01,2728.99,599.71,579.86,38.71,0000 0000 0000 0000 000000
2017-08-01 12:36:31,-0.00,2.65,0.00,26.15,30.44,32.92,13.64,49.74,1000.01,2017.02,2498.00,2455.03,2728.99,600.01,580.15,38.76,0000 0000 0000 0000 000000
2017-08-01 12:41:33,0.00,2.65,0.00,26.13,30.42,32.90,13.63,49.64,1000.06,2017.09,2498.00,2455.06,2728.99,599.76,579.94,38.81,0000 0000 0000 0000 000000
2017-08-01 12:46:34,0.01,2.65,0.00,26.12,30.40,32.89,13.62,49.89,1000.14,2017.24,2498.00,2455.13,2728.99,599.82,580.06,38.86,0000 0000 0000 0000 000000
2017-08-01 12:51:35,0.03,2.65,0.00,26.10,30.38,32.88,13.66,50.04,1000.20,2017.48,2498.00,2455.12,2728.99,600.28,580.61,38.91,0000 0000 0000 0000 000000
2017-08-01 12:56:36,-0.00,2.65,0.00,26.08,30.37,32.86,13.62,49.93,1000.12,2017.63,2498.00,2455.13,2728.99,599.69,580.08,38.96,0000 0000 0000 0000 000000
2017-08-01 13:01:38,0.03,2.65,0.00,26.06,30.35,32.84,13.63,49.84,1000.18,2017.82,2497.99,2455.06,2728.99,600.16,580.59,39.01,0000 0000 0000 0000 000000